Tracking 19827 objects as of 21-Aug-2019
HD Live streaming from Space Station
objects crossing your sky now

SL-6 R/B(2)

Track SL-6 R/B(2) now!


NORAD ID: 19810
Int'l Code: 1989-014D
Perigee: 1,701.5 km
Apogee: 37,505.2 km
Inclination: 64.4 °
Period: 694.3 minutes
Semi major axis: 25974 km
RCS: 8.2817 m2 (large)
Launch date: February 15, 1989
Source: Commonwealth of Independent States (former USSR) (CIS)
Launch site: TYURATAM MISSILE AND SPACE COMPLEX (TTMTR)

Note: This is a ROCKET BODY
aabbcc
Your satellite tracking list
Your tracking list is empty




NASA's NSSDC Master Catalog

Two Line Element Set (TLE):
1 19810U 89014D   19231.48127956 +.00000620 +00000-0 +00000-0 0  9997
2 19810 064.3796 318.4619 6892119 272.7487 016.9771 02.07389223230991
Source of the keplerian elements: AFSPC